CZ-4B DEB

Satellite information

Favourite Embed

Satellite Type and Status

DEBRISIN ORBIT

Key statistics

Satellite CZ-4B DEB at a glance.

Uptime

6041

Days in orbit

Revolutions

≈ 15.0

Per day

Orbit

SSO

Sun Synchronous Orbit

Inclination

97.9

Latest

Satellite identification and parameters

Extended collection of information and parameters for CZ-4B DEB.

Object identification

Identified? True

Debris? True

Object name: CZ-4B DEB

International designator: 2008-053K

Object number (NORAD): 36289

Object ID (CCSDS): 36289

Country: PEOPLES REPUBLIC OF CHINA (PRC)

Current information (Y/N): Y

RCS size: SMALL

Orbital parameters

Period: 95.803 minutes

Inclination: 97.8612 deg

SMA: 6935.549 km

Apoapsis: 564.818 km

Periapsis: 550.01 km

RAAN: 146.2614 deg

Eccentricy: 0.0010675

Argument of periapsis: 351.4597 deg

Mean anomaly: 8.6445 deg

Mean motion: 15.03077866 rev/day

Mean motion (dot): 0.00003573 rev/day2

B* drag term: 0.00026941 1/REarth

Two-line elements (TLE)

Creation date: May 9, 2025, 5:15 p.m.

Reference frame: TEME

Reference center: EARTH

Epoch: May 9, 2025, 6:17 a.m. UTC

TLE line 0: 0 CZ-4B DEB

TLE line 1: 1 36289U 08053K 25129.26223816 .00003573 00000-0 26941-3 0 9996

TLE line 2: 2 36289 97.8612 146.2614 0010675 351.4597 8.6445 15.03077866887351

Live tracking on map

Real-time ground track for satellite CZ-4B DEB.

In-orbit conjunctions

A list of the most updated potential collisions computed for object CZ-4B DEB.

Target Orbit TCA Probability of collision Miss distance Type
CZ-2C R/B LEO 2024-07-04 05:53:19 0.000112502 255.0 (m) ROCKET BODY

Associated space launch

It was announced that the two satellites had a design life of at least two years, and would be used to probe the space environment, radiation and its effects, record space physical environment parameters, and conduct other related space experiments.

CZ-4B DEB was lifted into orbit during the mission ‘Long March 4B | Shi Jian 6E & 6F’, on board a Long March 4B space rocket.

The launch took place on Oct. 25, 2008, 1:15 a.m. from Launch Complex 9.

For more information about the launch, click the button.

Launch to space Long March 4B | Shi Jian 6E & 6F
Long March 4B | Shi Jian 6E & 6F

Agency: N/A

Status: Launch Successful

Launch date: Oct. 25, 2008, 1:15 a.m. UTC

Rocket: Long March 4B

Launch pad: Launch Complex 9

Location: Taiyuan Satellite Launch Center, People's Republic of China

...

Latest news about this satellite

There are no fresh news available about this satellite. Check back as we update our databases every day.


Newsletter sign-up

Weekly statistics, charts and insights to help you stay on top of the space industry.